User: anonymous   Login
Location: Unspecified
(0.0000°N, 0.0000°E)
Time: 22:23:29
(UTC+01:00)
Language:

Milstar 3 Cent rocket - Orbit

View from above orbital plane
View from above orbital plane
View from above satellite
View from above satellite

Ground track
Ground track

The orbit data is extracted from the following two-line orbital elements,

1 25725U 99023B   14324.47287429 0.00000060  00000-0  13339-3 0    02
2 25725  28.3251  85.6159 2388418 290.9159  69.0835  9.67202103    08
Epoch (UTC): 20 November 2014 11:20:56
Eccentricity: 0.2388418
inclination: 28.3251°
perigee height: 704 km
apogee height: 5149 km
right ascension of ascending node: 85.6159°
argument of perigee: 290.9159°
revolutions per day: 9.67202103
mean anomaly at epoch: 69.0835°
orbit number at epoch: 0

The dashed part of the orbit path shows where the satellite is in the earth's shadow,  

DLR